Location: Newark
(53.7833°N, 9.4833°E)
Time: 00:06:50
(UTC+00:00)

Envisat - Pass Details

Date: 19 December 2019
Orbit: 764 x 766 km, 98.1° (Epoch: 26 January)

Event Time Altitude Azimuth Distance (km) Brightness Sun altitude
Rises 18:44:38 0° 217° (SW) 3,226 6.7 -31.2°
Reaches altitude 10° 18:47:56 10° 240° (WSW) 2,306 6.1 -31.7°
Maximum altitude 18:50:51 15° 275° (W) 1,968 5.9 -32.1°
Drops below altitude 10° 18:53:48 10° 311° (NW) 2,316 6.1 -32.6°
Sets 18:57:08 0° 334° (NNW) 3,248 6.6 -33.1°
